Time,TemperatureF,DewpointF,PressureIn,WindDirection,WindDirectionDegrees,WindSpeedMPH,WindSpeedGustMPH,Humidity,HourlyPrecipIn,Conditions,Clouds,dailyrainin,SoftwareType,DateUTC
2013-02-03 00:08:00,37.8,35.1,30.06,SW,215,8.0,8.0,90,0.00,CLR,,0.04,WeatherDisplay:10.37,2013-02-03 00:08:00,
2013-02-03 00:23:00,37.8,35.4,30.06,SSW,202,6.0,8.0,91,0.00,CLR,,0.04,WeatherDisplay:10.37,2013-02-03 00:23:00,
2013-02-03 00:38:00,37.6,35.5,30.06,WSW,237,10.0,10.0,92,0.00,CLR,,0.04,WeatherDisplay:10.37,2013-02-03 00:38:00,
2013-02-03 00:53:00,37.6,35.5,30.03,WSW,245,9.0,10.0,92,0.04,RA,,0.08,WeatherDisplay:10.37,2013-02-03 00:53:00,
2013-02-03 01:08:00,37.4,35.6,30.03,SW,220,7.0,9.0,93,0.00,CLR,,0.08,WeatherDisplay:10.37,2013-02-03 01:08:00,
2013-02-03 01:23:00,37.2,35.7,30.00,South,188,2.0,7.0,94,0.00,CLR,,0.08,WeatherDisplay:10.37,2013-02-03 01:23:00,
2013-02-03 01:38:00,37.4,35.8,30.00,WSW,241,7.0,7.0,94,0.00,CLR,,0.08,WeatherDisplay:10.37,2013-02-03 01:38:00,
2013-02-03 01:53:00,37.4,35.8,29.97,SW,230,10.0,12.0,94,0.04,RA,,0.12,WeatherDisplay:10.37,2013-02-03 01:53:00,
2013-02-03 02:08:00,37.4,35.8,29.97,SSW,211,3.0,12.0,94,0.00,CLR,,0.12,WeatherDisplay:10.37,2013-02-03 02:08:00,
2013-02-03 02:23:00,37.6,36.3,29.97,SW,227,2.0,8.0,95,0.00,CLR,,0.12,WeatherDisplay:10.37,2013-02-03 02:23:00,
2013-02-03 02:38:00,37.8,36.4,29.97,SSW,203,5.0,6.0,95,0.00,CLR,,0.12,WeatherDisplay:10.37,2013-02-03 02:38:00,
2013-02-03 02:53:00,37.8,36.7,29.94,SSW,193,1.0,5.0,96,0.04,RA,,0.16,WeatherDisplay:10.37,2013-02-03 02:53:00,
2013-02-03 03:08:00,37.9,36.9,29.94,WSW,242,0.0,2.0,96,0.00,CLR,,0.16,WeatherDisplay:10.37,2013-02-03 03:08:00,
2013-02-03 03:23:00,38.1,37.1,29.91,WSW,244,5.0,6.0,96,0.00,CLR,,0.16,WeatherDisplay:10.37,2013-02-03 03:23:00,
2013-02-03 03:38:00,38.5,37.7,29.88,SSW,206,3.0,5.0,97,0.04,RA,,0.20,WeatherDisplay:10.37,2013-02-03 03:38:00,
2013-02-03 03:53:00,39.0,38.2,29.88,SSW,212,6.0,6.0,97,0.00,CLR,,0.20,WeatherDisplay:10.37,2013-02-03 03:53:00,
2013-02-03 04:08:00,39.4,38.6,29.85,SSW,199,5.0,9.0,97,0.00,CLR,,0.20,WeatherDisplay:10.37,2013-02-03 04:08:00,
2013-02-03 04:23:00,40.3,39.8,29.85,SW,224,2.0,10.0,98,0.00,CLR,,0.20,WeatherDisplay:10.37,2013-02-03 04:23:00,
2013-02-03 04:38:00,40.6,40.1,29.85,SSW,212,6.0,12.0,98,0.00,CLR,,0.20,WeatherDisplay:10.37,2013-02-03 04:38:00,
2013-02-03 04:53:00,41.2,40.7,29.85,SSW,200,5.0,8.0,98,0.00,CLR,,0.20,WeatherDisplay:10.37,2013-02-03 04:53:00,
2013-02-03 05:08:00,41.4,40.8,29.85,SSW,209,1.0,6.0,98,0.00,CLR,,0.20,WeatherDisplay:10.37,2013-02-03 05:08:00,
2013-02-03 05:23:00,41.2,40.7,29.85,WSW,241,3.0,7.0,98,0.00,CLR,,0.20,WeatherDisplay:10.37,2013-02-03 05:23:00,
2013-02-03 05:38:00,42.3,41.7,29.83,West,273,5.0,6.0,98,0.00,,,0.24,WeatherDisplay:10.37,2013-02-03 05:38:00,
2013-02-03 05:53:00,43.3,42.8,29.83,WNW,291,6.0,10.0,98,0.00,CLR,,0.24,WeatherDisplay:10.37,2013-02-03 05:53:00,
2013-02-03 06:08:00,43.7,43.2,29.83,West,267,10.0,10.0,98,0.00,CLR,,0.24,WeatherDisplay:10.37,2013-02-03 06:08:00,
2013-02-03 06:23:00,43.9,43.4,29.83,SW,236,6.0,10.0,98,0.00,CLR,,0.24,WeatherDisplay:10.37,2013-02-03 06:23:00,
2013-02-03 06:38:00,44.2,43.7,29.83,SW,221,10.0,10.0,98,0.00,CLR,,0.24,WeatherDisplay:10.37,2013-02-03 06:38:00,
2013-02-03 06:53:00,45.0,44.4,29.83,WSW,242,8.0,15.0,98,0.00,CLR,,0.24,WeatherDisplay:10.37,2013-02-03 06:53:00,
2013-02-03 07:08:00,45.1,44.6,29.83,WSW,239,12.0,15.0,98,0.00,CLR,,0.24,WeatherDisplay:10.37,2013-02-03 07:08:00,
2013-02-03 07:23:00,45.3,44.8,29.83,West,264,9.0,20.0,98,0.00,CLR,,0.24,WeatherDisplay:10.37,2013-02-03 07:23:00,
2013-02-03 07:38:00,45.3,44.5,29.83,West,276,13.0,16.0,97,0.00,CLR,,0.24,WeatherDisplay:10.37,2013-02-03 07:38:00,
2013-02-03 07:53:00,45.0,42.8,29.83,WNW,291,8.0,17.0,92,0.00,CLR,,0.24,WeatherDisplay:10.37,2013-02-03 07:53:00,
2013-02-03 08:08:00,44.6,41.3,29.83,SE,136,9.0,10.0,88,0.00,CLR,,0.24,WeatherDisplay:10.37,2013-02-03 08:08:00,
2013-02-03 08:23:00,44.6,41.0,29.83,NNW,338,12.0,12.0,87,0.00,CLR,,0.24,WeatherDisplay:10.37,2013-02-03 08:23:00,
2013-02-03 08:38:00,44.4,40.8,29.83,NW,323,9.0,12.0,87,0.00,CLR,,0.24,WeatherDisplay:10.37,2013-02-03 08:38:00,
2013-02-03 08:53:00,44.3,40.4,29.83,West,272,12.0,14.0,86,0.00,CLR,,0.24,WeatherDisplay:10.37,2013-02-03 08:53:00,
2013-02-03 09:08:00,44.5,40.3,29.84,WNW,286,7.0,17.0,85,0.00,CLR,,0.24,WeatherDisplay:10.37,2013-02-03 09:08:00,
2013-02-03 09:23:00,45.0,40.7,29.85,WNW,293,10.0,17.0,85,0.00,CLR,,0.24,WeatherDisplay:10.37,2013-02-03 09:23:00,
2013-02-03 09:38:00,45.3,40.1,29.83,West,263,14.0,21.0,82,0.00,CLR,,0.24,WeatherDisplay:10.37,2013-02-03 09:38:00,
2013-02-03 09:53:00,45.7,39.5,29.83,WNW,287,13.0,20.0,79,0.00,CLR,,0.24,WeatherDisplay:10.37,2013-02-03 09:53:00,
2013-02-03 10:08:00,45.9,39.7,29.83,NW,310,23.0,23.0,79,0.00,CLR,,0.24,WeatherDisplay:10.37,2013-02-03 10:08:00,
2013-02-03 10:23:00,46.0,40.2,29.83,West,278,1.0,23.0,80,0.00,CLR,,0.24,WeatherDisplay:10.37,2013-02-03 10:23:00,
2013-02-03 10:38:00,46.2,40.1,29.83,WNW,286,13.0,20.0,79,0.00,CLR,,0.24,WeatherDisplay:10.37,2013-02-03 10:38:00,
2013-02-03 10:53:00,46.8,39.9,29.83,West,279,20.0,21.0,77,0.00,CLR,,0.24,WeatherDisplay:10.37,2013-02-03 10:53:00,
2013-02-03 11:08:00,47.1,39.9,29.83,WNW,289,5.0,22.0,76,0.00,CLR,,0.24,WeatherDisplay:10.37,2013-02-03 11:08:00,
2013-02-03 11:23:00,47.1,39.9,29.83,NW,305,10.0,12.0,76,0.00,CLR,,0.24,WeatherDisplay:10.37,2013-02-03 11:23:00,
2013-02-03 11:38:00,46.9,39.8,29.85,WNW,282,14.0,15.0,76,0.00,CLR,,0.24,WeatherDisplay:10.37,2013-02-03 11:38:00,
2013-02-03 11:53:00,46.9,39.8,29.85,WNW,290,6.0,13.0,76,0.00,CLR,,0.24,WeatherDisplay:10.37,2013-02-03 11:53:00,
2013-02-03 12:08:00,46.8,40.3,29.85,WNW,288,9.0,17.0,78,0.00,CLR,,0.24,WeatherDisplay:10.37,2013-02-03 12:08:00,
2013-02-03 12:23:00,46.8,39.9,29.85,WNW,288,20.0,20.0,77,0.00,CLR,,0.24,WeatherDisplay:10.37,2013-02-03 12:23:00,
2013-02-03 12:38:00,46.8,39.9,29.85,West,279,8.0,20.0,77,0.00,CLR,,0.24,WeatherDisplay:10.37,2013-02-03 12:38:00,
2013-02-03 12:53:00,46.6,40.1,29.85,West,269,7.0,8.0,78,0.00,CLR,,0.24,WeatherDisplay:10.37,2013-02-03 12:53:00,
2013-02-03 13:08:00,46.2,40.1,29.85,West,272,9.0,10.0,79,0.00,CLR,,0.24,WeatherDisplay:10.37,2013-02-03 13:08:00,
2013-02-03 13:23:00,46.2,40.7,29.85,WSW,254,5.0,10.0,81,0.00,CLR,,0.24,WeatherDisplay:10.37,2013-02-03 13:23:00,
2013-02-03 13:38:00,46.2,41.0,29.85,WNW,296,8.0,8.0,82,0.00,CLR,,0.24,WeatherDisplay:10.37,2013-02-03 13:38:00,
2013-02-03 13:53:00,46.2,41.0,29.83,West,270,9.0,10.0,82,0.00,CLR,,0.24,WeatherDisplay:10.37,2013-02-03 13:53:00,
2013-02-03 14:08:00,46.0,41.5,29.83,West,279,5.0,12.0,84,0.00,CLR,,0.24,WeatherDisplay:10.37,2013-02-03 14:08:00,
2013-02-03 14:23:00,45.9,41.6,29.84,WNW,287,5.0,7.0,85,0.00,CLR,,0.24,WeatherDisplay:10.37,2013-02-03 14:23:00,
2013-02-03 14:38:00,46.0,42.1,29.83,WNW,285,3.0,8.0,86,0.00,CLR,,0.24,WeatherDisplay:10.37,2013-02-03 14:38:00,
2013-02-03 14:53:00,46.2,42.0,29.83,WSW,252,12.0,14.0,85,0.00,CLR,,0.24,WeatherDisplay:10.37,2013-02-03 14:53:00,
2013-02-03 15:08:00,46.2,41.7,29.83,WSW,258,6.0,12.0,84,0.00,CLR,,0.24,WeatherDisplay:10.37,2013-02-03 15:08:00,
2013-02-03 15:23:00,46.2,41.7,29.83,SW,218,5.0,9.0,84,0.00,CLR,,0.24,WeatherDisplay:10.37,2013-02-03 15:23:00,
2013-02-03 15:38:00,46.4,41.2,29.80,West,277,10.0,11.0,82,0.00,CLR,,0.24,WeatherDisplay:10.37,2013-02-03 15:38:00,
2013-02-03 15:53:00,46.2,41.0,29.80,WNW,290,8.0,17.0,82,0.00,CLR,,0.24,WeatherDisplay:10.37,2013-02-03 15:53:00,
2013-02-03 16:08:00,46.2,41.3,29.80,SW,226,6.0,12.0,83,0.00,CLR,,0.24,WeatherDisplay:10.37,2013-02-03 16:08:00,
2013-02-03 16:23:00,46.0,41.5,29.80,NW,317,7.0,15.0,84,0.00,CLR,,0.24,WeatherDisplay:10.37,2013-02-03 16:23:00,
2013-02-03 16:38:00,46.0,41.5,29.77,West,262,6.0,13.0,84,0.00,CLR,,0.24,WeatherDisplay:10.37,2013-02-03 16:38:00,
2013-02-03 16:53:00,46.2,41.7,29.77,WNW,285,6.0,14.0,84,0.00,CLR,,0.24,WeatherDisplay:10.37,2013-02-03 16:53:00,
2013-02-03 17:08:00,46.0,41.8,29.77,WSW,254,6.0,9.0,85,0.00,CLR,,0.24,WeatherDisplay:10.37,2013-02-03 17:08:00,
2013-02-03 17:23:00,46.0,42.1,29.77,SW,225,3.0,6.0,86,0.00,CLR,,0.24,WeatherDisplay:10.37,2013-02-03 17:23:00,
2013-02-03 17:38:00,46.0,42.1,29.77,West,269,0.0,6.0,86,0.00,CLR,,0.24,WeatherDisplay:10.37,2013-02-03 17:38:00,
2013-02-03 17:53:00,45.9,42.5,29.74,WSW,248,3.0,3.0,88,0.00,CLR,,0.24,WeatherDisplay:10.37,2013-02-03 17:53:00,
2013-02-03 18:08:00,45.7,42.9,29.74,SW,231,3.0,6.0,90,0.00,CLR,,0.24,WeatherDisplay:10.37,2013-02-03 18:08:00,
2013-02-03 18:23:00,45.7,43.5,29.74,WSW,237,5.0,8.0,92,0.00,CLR,,0.24,WeatherDisplay:10.37,2013-02-03 18:23:00,
2013-02-03 18:38:00,45.9,44.2,29.74,SW,226,9.0,10.0,94,0.00,CLR,,0.24,WeatherDisplay:10.37,2013-02-03 18:38:00,
2013-02-03 18:53:00,46.0,44.7,29.74,West,271,3.0,8.0,95,0.00,CLR,,0.24,WeatherDisplay:10.37,2013-02-03 18:53:00,
2013-02-03 19:08:00,46.2,45.1,29.71,SSW,209,9.0,9.0,96,0.00,CLR,,0.24,WeatherDisplay:10.37,2013-02-03 19:08:00,
2013-02-03 19:23:00,46.5,45.4,29.71,SW,218,13.0,15.0,96,0.04,RA,,0.28,WeatherDisplay:10.37,2013-02-03 19:23:00,
2013-02-03 19:38:00,47.1,46.3,29.71,West,260,7.0,12.0,97,0.00,CLR,,0.28,WeatherDisplay:10.37,2013-02-03 19:38:00,
2013-02-03 19:53:00,47.5,46.7,29.68,WSW,253,8.0,13.0,97,0.00,CLR,,0.28,WeatherDisplay:10.37,2013-02-03 19:53:00,
2013-02-03 20:08:00,47.5,46.7,29.68,WSW,251,6.0,13.0,97,0.00,CLR,,0.28,WeatherDisplay:10.37,2013-02-03 20:08:00,
2013-02-03 20:23:00,47.3,46.2,29.68,WSW,241,2.0,8.0,96,0.00,CLR,,0.28,WeatherDisplay:10.37,2013-02-03 20:23:00,
2013-02-03 20:38:00,47.1,46.0,29.68,SSW,213,6.0,8.0,96,0.00,CLR,,0.28,WeatherDisplay:10.37,2013-02-03 20:38:00,
2013-02-03 20:53:00,46.8,45.7,29.68,SW,226,7.0,10.0,96,0.00,CLR,,0.28,WeatherDisplay:10.37,2013-02-03 20:53:00,
2013-02-03 21:08:00,46.6,45.5,29.65,SSW,201,7.0,9.0,96,0.00,CLR,,0.28,WeatherDisplay:10.37,2013-02-03 21:08:00,
2013-02-03 21:23:00,46.8,46.0,29.65,South,186,7.0,9.0,97,0.00,CLR,,0.31,WeatherDisplay:10.37,2013-02-03 21:23:00,
2013-02-03 21:38:00,46.8,46.0,29.65,South,186,3.0,7.0,97,0.04,RA,,0.35,WeatherDisplay:10.37,2013-02-03 21:38:00,
2013-02-03 21:53:00,46.8,46.0,29.65,SSW,196,2.0,10.0,97,0.00,CLR,,0.35,WeatherDisplay:10.37,2013-02-03 21:53:00,
2013-02-03 22:08:00,46.9,46.4,29.62,SW,216,6.0,6.0,98,0.00,CLR,,0.35,WeatherDisplay:10.37,2013-02-03 22:08:00,
2013-02-03 22:23:00,47.1,46.6,29.62,SSW,192,7.0,7.0,98,0.00,CLR,,0.35,WeatherDisplay:10.37,2013-02-03 22:23:00,
2013-02-03 22:38:00,47.5,46.9,29.62,SW,229,6.0,7.0,98,0.00,RA,,0.39,WeatherDisplay:10.37,2013-02-03 22:38:00,
2013-02-03 22:53:00,47.8,47.3,29.59,WSW,241,15.0,15.0,98,0.00,CLR,,0.39,WeatherDisplay:10.37,2013-02-03 22:53:00,
2013-02-03 23:08:00,48.0,47.5,29.59,West,260,14.0,17.0,98,0.00,CLR,,0.39,WeatherDisplay:10.37,2013-02-03 23:08:00,
2013-02-03 23:23:00,48.4,47.8,29.59,WNW,292,8.0,14.0,98,0.00,CLR,,0.39,WeatherDisplay:10.37,2013-02-03 23:23:00,
2013-02-03 23:38:00,48.3,47.8,29.59,West,266,18.0,22.0,98,0.00,CLR,,0.39,WeatherDisplay:10.37,2013-02-03 23:38:00,
2013-02-03 23:53:00,47.3,44.8,29.59,West,280,9.0,23.0,91,0.00,RA,,0.00,WeatherDisplay:10.37,2013-02-03 23:53:00,